Location: Moscow
(55.7500°N, 37.5830°E)
Time: 16:24:46
(UTC+03:00)

FENGYUN 1C DEB - Pass Details

Date: 10 July 2022
Orbit: 590 x 882 km, 98.9° (Epoch: 16 August)

Event Time Altitude Azimuth Distance (km) Brightness Sun altitude
Rises 02:44:13 0° 29° (NNE) 3,278 ? -7.3°
Reaches altitude 10° 02:48:06 10° 59° (ENE) 2,410 ? -7.0°
Maximum altitude 02:50:17 12° 83° (E) 2,270 ? -6.9°
Drops below altitude 10° 02:52:30 10° 107° (ESE) 2,466 ? -6.7°
Sets 02:56:34 0° 136° (SE) 3,440 ? -6.4°
